Flag for Germany Weather past 2 weeks in Landsberg am Lech, Bavaria, Germany

Now
30 °F

Light snow. Partly cloudy.


Feels Like: 19 °F
Forecast: 29 / 37 °F
Wind: 16 mph from West

Location: Landsberg

Current Time: Jan 27, 2015 at 8:03:04 PM

Latest Report: Jan 27, 2015 at 7:20 PM


Visibility: 5 mi

Pressure: 30.12 "Hg

Humidity: 93%

Dew point: 28 °F

Location of Landsberg am LechLocation

Historic Weather in Landsberg am Lech — Graph

°F

Landsberg am Lech temperature yesterday

Maximum temperature yesterday: 34 °F (at 1:20 PM)
Minimum temperature yesterday: 27 °F (at 6:20 AM)
Average temperature yesterday: 30 °F

Past Weeks' High & Low Weather Summary

 TemperatureHumidityPressure
High55 °F (Jan 13, 1:20 PM)100% (Jan 15, 1:20 AM)30.33 "Hg (Jan 15, 1:20 AM)
Low23 °F (Jan 20, 12:20 AM)19% (Jan 13, 2:20 PM)29.65 "Hg (Jan 16, 4:20 PM)
Average33 °F84%29.98 "Hg
* Reported Jan 12 6:20 PM — Jan 27 6:20 PM, Landsberg am Lech, Weather by CustomWeather, © 2014

Note: Actual official high and low records may vary slightly from our data, if they occured in-between our weather recording intervals... More about our weather records

Advertising

Landsberg am Lech weather history for previous 24 hours

 ConditionsComfort  
Time TempWeatherWind HumidityBarometerVisibility
6:20 PM
Jan 27
30 °FLight snow. Passing clouds.16 mph93%30.12 "Hg4 mi
5:20 PM30 °FSnow flurries. Mostly cloudy.15 mph100%30.09 "Hg3 mi
5:00 PM30 °FSnow flurries. Partly sunny.15 mph100%30.09 "Hg2 mi
4:20 PM30 °FSnow showers. Partly sunny.15 mph100%30.09 "Hg1 mi
4:03 PM30 °FSnow showers. Partly sunny.15 mph100%30.09 "Hg1 mi
3:48 PM30 °FSnow showers. Partly sunny.14 mph100%30.09 "Hg2 mi
3:20 PM32 °FSnow showers. Partly sunny.16 mph87%30.09 "Hg1 mi
2:50 PM32 °FSnow showers. Partly sunny.17 mph87%30.09 "Hg1 mi
2:20 PM32 °FSnow flurries. Partly sunny.16 mph93%30.09 "Hg4 mi
1:50 PM32 °FSnow flurries. Partly sunny.17 mph87%30.09 "Hg5 mi
1:20 PM32 °FBroken clouds.18 mph87%30.12 "HgN/A
12:20 PM32 °FSnow flurries. Partly sunny.16 mph93%30.12 "Hg4 mi
12:02 PM32 °FSnow flurries. Partly sunny.20 mph87%30.12 "Hg3 mi
11:20 AM32 °FBroken clouds.15 mph87%30.12 "Hg4 mi
11:00 AM32 °FBroken clouds.17 mph93%30.12 "Hg4 mi
10:20 AM32 °FSnow flurries. Partly sunny.17 mph87%30.12 "Hg3 mi
9:20 AM32 °FPartly sunny.14 mph93%30.09 "Hg4 mi
8:59 AM32 °FPartly sunny.14 mph93%30.09 "Hg4 mi
8:20 AM32 °FSnow showers. Broken clouds.14 mph93%30.09 "Hg2 mi
7:20 AM32 °FSnow flurries. Partly cloudy.10 mph93%30.09 "Hg4 mi
6:20 AM32 °FPassing clouds.12 mph93%30.07 "Hg5 mi
5:45 AM32 °FLight snow. Overcast.13 mph93%30.07 "Hg2 mi
4:20 AM32 °FLight snow. Mostly cloudy.15 mph93%30.07 "Hg2 mi
3:20 AM32 °FSnow. Mostly cloudy.17 mph93%30.04 "Hg1 mi
2:20 AM32 °FSnow. Mostly cloudy.20 mph93%30.04 "Hg1 mi
1:20 AM32 °FSnow. Mostly cloudy.16 mph93%30.04 "Hg1 mi
12:20 AM32 °FSnow. Mostly cloudy.17 mph93%30.04 "Hg2 mi
11:20 PM
Jan 26
30 °FSnow. Mostly cloudy.15 mph100%30.04 "Hg1 mi
10:20 PM30 °FSnow. Mostly cloudy.14 mph100%30.04 "Hg1 mi
9:20 PM30 °FSnow. Passing clouds.10 mph93%30.07 "Hg1 mi
8:20 PM28 °FSnow. Passing clouds.14 mph100%30.09 "Hg1 mi
Weather by CustomWeather, © 2014

See weather overviewHow to use our weather pages